Regional Weather Roundup
Issued by NWS

Home | Current Version | Previous Version | Graphics & Text | Print | Product List | Glossary On
Versions: 1 2 3 4 5 6 7 8 9 10 11 12 13 14 15 16 17 18 19 20 21 22 23 24 25 26 27 28 29 30 31 32 33 34 35 36 37 38 39 40 41 42 43 44 45 46 47 48 49 50
586
ASUS43 KBIS 291110
RWRND

NORTH DAKOTA REGIONAL WEATHER ROUNDUP
NATIONAL WEATHER SERVICE BISMARCK ND
600 AM CDT WED MAR 29 2017

NOTE: "FAIR" INDICATES FEW OR NO CLOUDS BELOW 12,000 FEET WITH NO
SIGNIFICANT WEATHER AND/OR OBSTRUCTIONS TO VISIBILITY.


NDZ001>003-009>011-017-291200-
NORTHWEST NORTH DAKOTA

CITY           SKY/WX    TMP DP  RH WIND       PRES   REMARKS
WILLISTON      FOG       32  32 100 CALM      30.06F VSB 1/4
MINOT          CLOUDY    45  41  86 S6        30.06S
MINOT AFB      CLOUDY    39  39 100 CALM      30.05F
$$

NDZ018>021-031>035-040>046-291200-
SOUTHWEST NORTH DAKOTA

CITY           SKY/WX    TMP DP  RH WIND       PRES   REMARKS
BISMARCK       FAIR      37  36  96 E5        30.14S
DICKINSON      FOG       36  36 100 S8        30.06S VSB 1/2
GARRISON         N/A     38  36  92 SE5       30.08F
HETTINGER ARPT FOG       37  37 100 S5        30.12R VSB 1/4
$$

NDZ004>008-012>016-024-026-027-054-291200-
NORTHEAST NORTH DAKOTA

CITY           SKY/WX    TMP DP  RH WIND       PRES   REMARKS
GRAND FORKS    CLOUDY    32  31  96 CALM      30.17F
GRND FRKS AFB  CLOUDY    30  30 100 CALM      30.16F
DEVILS LAKE    CLOUDY    34  34 100 S3        30.15F
$$

NDZ022-023-025-028>030-036>039-047>053-291200-
SOUTHEAST NORTH DAKOTA

CITY           SKY/WX    TMP DP  RH WIND       PRES   REMARKS
FARGO          CLOUDY    38  33  82 E3        30.17S
JAMESTOWN      FOG       31  31 100 CALM      30.15S VSB 1/4
$$





USA.gov is the U.S. government's official web portal to all federal, state and local government web resources and services.